Time,TemperatureF,DewpointF,PressureIn,WindDirection,WindDirectionDegrees,WindSpeedMPH,WindSpeedGustMPH,Humidity,HourlyPrecipIn,Conditions,Clouds,dailyrainin,SoftwareType,DateUTC
2013-02-15 00:11:00,31.1,30.3,29.89,WNW,292,0.0,-999.0,97,-99.99,,,0.00,Acu-Link.com,2013-02-15 05:11:00,
2013-02-15 00:26:00,30.7,29.7,29.89,WNW,292,0.0,-999.0,96,-99.99,,,0.00,Acu-Link.com,2013-02-15 05:26:00,
2013-02-15 00:41:00,30.4,29.4,29.89,WNW,292,0.0,-999.0,96,-99.99,,,0.00,Acu-Link.com,2013-02-15 05:41:00,
2013-02-15 00:56:00,30.0,28.5,29.89,WNW,292,0.0,-999.0,94,-99.99,,,0.00,Acu-Link.com,2013-02-15 05:56:00,
2013-02-15 01:11:00,29.5,28.8,29.89,WNW,292,0.0,-999.0,97,-99.99,,,0.00,Acu-Link.com,2013-02-15 06:11:00,
2013-02-15 01:26:00,29.7,29.2,29.89,WNW,292,0.0,-999.0,98,-99.99,,,0.00,Acu-Link.com,2013-02-15 06:26:00,
2013-02-15 01:41:00,29.8,29.6,29.90,WNW,292,0.0,-999.0,99,-99.99,,,0.00,Acu-Link.com,2013-02-15 06:41:00,
2013-02-15 01:56:00,29.3,28.6,29.89,WNW,292,0.0,-999.0,97,-99.99,,,0.00,Acu-Link.com,2013-02-15 06:56:00,
2013-02-15 02:11:00,29.5,29.3,29.89,WNW,292,0.0,-999.0,99,-99.99,,,0.00,Acu-Link.com,2013-02-15 07:11:00,
2013-02-15 02:27:00,29.5,29.3,29.89,WNW,292,0.0,-999.0,99,-99.99,,,0.00,Acu-Link.com,2013-02-15 07:27:00,
2013-02-15 02:42:00,29.1,28.9,29.90,WNW,292,0.0,-999.0,99,-99.99,,,0.00,Acu-Link.com,2013-02-15 07:42:00,
2013-02-15 02:57:00,29.1,28.9,29.90,WNW,292,0.0,-999.0,99,-99.99,,,0.00,Acu-Link.com,2013-02-15 07:57:00,
2013-02-15 03:12:00,28.9,28.7,29.89,WNW,292,0.0,-999.0,99,-99.99,,,0.00,Acu-Link.com,2013-02-15 08:12:00,
2013-02-15 03:27:00,28.8,28.3,29.89,WNW,292,0.0,-999.0,98,-99.99,,,0.00,Acu-Link.com,2013-02-15 08:27:00,
2013-02-15 03:42:00,28.4,27.9,29.89,WNW,292,0.0,-999.0,98,-99.99,,,0.00,Acu-Link.com,2013-02-15 08:42:00,
2013-02-15 03:58:00,28.2,27.7,29.90,WNW,292,0.0,-999.0,98,-99.99,,,0.00,Acu-Link.com,2013-02-15 08:58:00,
2013-02-15 04:17:00,28.2,27.7,29.89,WNW,292,0.0,-999.0,98,-99.99,,,0.00,Acu-Link.com,2013-02-15 09:17:00,
2013-02-15 04:33:00,28.0,27.5,29.89,WNW,292,0.0,-999.0,98,-99.99,,,0.00,Acu-Link.com,2013-02-15 09:33:00,
2013-02-15 04:48:00,27.7,27.0,29.89,WNW,292,0.0,-999.0,97,-99.99,,,0.00,Acu-Link.com,2013-02-15 09:48:00,
2013-02-15 05:03:00,27.5,26.8,29.89,WNW,292,0.0,-999.0,97,-99.99,,,0.00,Acu-Link.com,2013-02-15 10:03:00,
2013-02-15 05:18:00,27.3,26.6,29.89,WNW,292,0.0,-999.0,97,-99.99,,,0.00,Acu-Link.com,2013-02-15 10:18:00,
2013-02-15 05:33:00,27.1,26.6,29.90,WNW,292,0.0,-999.0,98,-99.99,,,0.00,Acu-Link.com,2013-02-15 10:33:00,
2013-02-15 05:49:00,26.8,26.1,29.90,WNW,292,0.0,-999.0,97,-99.99,,,0.00,Acu-Link.com,2013-02-15 10:49:00,
2013-02-15 06:04:00,26.6,26.4,29.92,WNW,292,0.0,-999.0,99,-99.99,,,0.00,Acu-Link.com,2013-02-15 11:04:00,
2013-02-15 06:19:00,26.8,26.6,29.92,WNW,292,0.0,-999.0,99,-99.99,,,0.00,Acu-Link.com,2013-02-15 11:19:00,
2013-02-15 06:34:00,26.6,26.1,29.92,WNW,292,0.0,-999.0,98,-99.99,,,0.00,Acu-Link.com,2013-02-15 11:34:00,
2013-02-15 06:49:00,26.4,25.7,29.93,WNW,292,0.0,-999.0,97,-99.99,,,0.00,Acu-Link.com,2013-02-15 11:49:00,
2013-02-15 07:04:00,26.1,25.6,29.93,WNW,292,0.0,-999.0,98,-99.99,,,0.00,Acu-Link.com,2013-02-15 12:04:00,
2013-02-15 07:19:00,26.2,25.7,29.93,WNW,292,0.0,-999.0,98,-99.99,,,0.00,Acu-Link.com,2013-02-15 12:19:00,
2013-02-15 07:34:00,26.2,25.7,29.93,WNW,292,0.0,-999.0,98,-99.99,,,0.00,Acu-Link.com,2013-02-15 12:34:00,
2013-02-15 07:49:00,26.6,26.4,29.93,WNW,292,0.0,-999.0,99,-99.99,,,0.00,Acu-Link.com,2013-02-15 12:49:00,
2013-02-15 08:05:00,27.5,27.3,29.94,WNW,292,0.0,-999.0,99,-99.99,,,0.00,Acu-Link.com,2013-02-15 13:05:00,
2013-02-15 08:20:00,31.8,31.0,29.94,WNW,292,0.0,-999.0,97,-99.99,,,0.00,Acu-Link.com,2013-02-15 13:20:00,
2013-02-15 08:35:00,35.4,33.0,29.93,South,180,0.0,-999.0,91,-99.99,,,0.00,Acu-Link.com,2013-02-15 13:35:00,
2013-02-15 08:50:00,38.3,34.5,29.92,SW,225,0.0,-999.0,86,-99.99,,,0.00,Acu-Link.com,2013-02-15 13:50:00,
2013-02-15 09:05:00,41.5,36.1,29.92,SE,135,0.0,-999.0,81,-99.99,,,0.00,Acu-Link.com,2013-02-15 14:05:00,
2013-02-15 09:20:00,42.1,37.9,29.92,SSE,157,0.0,-999.0,85,-99.99,,,0.00,Acu-Link.com,2013-02-15 14:20:00,
2013-02-15 09:35:00,47.3,40.1,29.91,East,90,1.1,-999.0,76,-99.99,,,0.00,Acu-Link.com,2013-02-15 14:35:00,
2013-02-15 09:50:00,51.4,42.7,29.90,ESE,112,2.2,-999.0,72,-99.99,,,0.00,Acu-Link.com,2013-02-15 14:50:00,
2013-02-15 10:05:00,53.4,43.1,29.90,East,90,2.2,-999.0,68,-99.99,,,0.00,Acu-Link.com,2013-02-15 15:05:00,
2013-02-15 10:20:00,56.1,42.8,29.89,SSE,157,4.7,-999.0,61,-99.99,,,0.00,Acu-Link.com,2013-02-15 15:20:00,
2013-02-15 10:36:00,55.8,40.3,29.89,WSW,247,4.2,-999.0,56,-99.99,,,0.00,Acu-Link.com,2013-02-15 15:36:00,
2013-02-15 10:51:00,57.6,41.1,29.88,SSW,202,3.2,-999.0,54,-99.99,,,0.00,Acu-Link.com,2013-02-15 15:51:00,
2013-02-15 11:06:00,54.9,40.0,29.89,West,270,6.8,-999.0,57,-99.99,,,0.00,Acu-Link.com,2013-02-15 16:06:00,
2013-02-15 11:21:00,56.7,41.2,29.88,SW,225,4.2,-999.0,56,-99.99,,,0.00,Acu-Link.com,2013-02-15 16:21:00,
2013-02-15 11:36:00,57.2,41.2,29.88,WSW,247,4.7,-999.0,55,-99.99,,,0.00,Acu-Link.com,2013-02-15 16:36:00,
2013-02-15 11:51:00,56.1,40.6,29.90,NW,315,4.2,-999.0,56,-99.99,,,0.00,Acu-Link.com,2013-02-15 16:51:00,
2013-02-15 12:06:00,55.4,40.4,29.90,WNW,292,3.7,-999.0,57,-99.99,,,0.00,Acu-Link.com,2013-02-15 17:06:00,
2013-02-15 12:22:00,55.4,40.4,29.90,SSW,202,3.2,-999.0,57,-99.99,,,0.00,Acu-Link.com,2013-02-15 17:22:00,
2013-02-15 12:37:00,55.2,41.1,29.89,SSW,202,3.2,-999.0,59,-99.99,,,0.00,Acu-Link.com,2013-02-15 17:37:00,
2013-02-15 12:52:00,56.3,40.8,29.89,WSW,247,3.7,-999.0,56,-99.99,,,0.00,Acu-Link.com,2013-02-15 17:52:00,
2013-02-15 13:07:00,53.1,40.0,29.90,West,270,4.7,-999.0,61,-99.99,,,0.00,Acu-Link.com,2013-02-15 18:07:00,
2013-02-15 13:22:00,52.5,40.7,29.89,West,270,3.2,-999.0,64,-99.99,,,0.00,Acu-Link.com,2013-02-15 18:22:00,
2013-02-15 13:38:00,52.2,40.4,29.88,WNW,292,1.7,-999.0,64,-99.99,,,0.00,Acu-Link.com,2013-02-15 18:38:00,
2013-02-15 13:53:00,52.7,40.5,29.89,West,270,3.7,-999.0,63,-99.99,,,0.00,Acu-Link.com,2013-02-15 18:53:00,
2013-02-15 14:08:00,52.9,38.5,29.87,NW,315,9.4,-999.0,58,-99.99,,,0.00,Acu-Link.com,2013-02-15 19:08:00,
2013-02-15 14:23:00,52.3,38.4,29.87,West,270,0.0,-999.0,59,-99.99,,,0.00,Acu-Link.com,2013-02-15 19:23:00,
2013-02-15 14:38:00,51.1,38.1,29.88,SW,225,7.8,-999.0,61,-99.99,,,0.00,Acu-Link.com,2013-02-15 19:38:00,
2013-02-15 14:53:00,50.7,39.0,29.88,West,270,2.2,-999.0,64,-99.99,,,0.00,Acu-Link.com,2013-02-15 19:53:00,
2013-02-15 15:09:00,49.1,38.6,29.88,West,270,4.7,-999.0,67,-99.99,,,0.00,Acu-Link.com,2013-02-15 20:09:00,
2013-02-15 15:24:00,48.2,37.4,29.89,West,270,6.8,-999.0,66,-99.99,,,0.01,Acu-Link.com,2013-02-15 20:24:00,
2013-02-15 15:39:00,47.8,38.9,29.88,South,180,4.2,-999.0,71,-99.99,,,0.01,Acu-Link.com,2013-02-15 20:39:00,
2013-02-15 15:54:00,47.1,38.9,29.89,NW,315,2.7,-999.0,73,-99.99,,,0.01,Acu-Link.com,2013-02-15 20:54:00,
2013-02-15 16:09:00,46.9,38.4,29.88,WNW,292,1.7,-999.0,72,-99.99,,,0.01,Acu-Link.com,2013-02-15 21:09:00,
2013-02-15 16:24:00,46.6,37.7,29.90,NNW,337,3.2,-999.0,71,-99.99,,,0.01,Acu-Link.com,2013-02-15 21:24:00,
2013-02-15 16:39:00,46.4,37.2,29.89,NNW,337,3.2,-999.0,70,-99.99,,,0.01,Acu-Link.com,2013-02-15 21:39:00,
2013-02-15 16:55:00,46.0,36.8,29.89,WNW,292,3.7,-999.0,70,-99.99,,,0.01,Acu-Link.com,2013-02-15 21:55:00,
2013-02-15 17:10:00,45.9,36.3,29.89,NNE,22,0.0,-999.0,69,-99.99,,,0.01,Acu-Link.com,2013-02-15 22:10:00,
2013-02-15 17:25:00,45.5,35.9,29.89,WNW,292,4.7,-999.0,69,-99.99,,,0.01,Acu-Link.com,2013-02-15 22:25:00,
2013-02-15 17:40:00,45.3,36.1,29.90,ENE,67,1.7,-999.0,70,-99.99,,,0.01,Acu-Link.com,2013-02-15 22:40:00,
2013-02-15 17:55:00,45.1,37.0,29.90,NNW,337,2.2,-999.0,73,-99.99,,,0.01,Acu-Link.com,2013-02-15 22:55:00,
2013-02-15 18:10:00,45.0,36.2,29.92,NNW,337,1.7,-999.0,71,-99.99,,,0.01,Acu-Link.com,2013-02-15 23:10:00,
2013-02-15 18:25:00,44.4,35.6,29.92,NW,315,2.7,-999.0,71,-99.99,,,0.01,Acu-Link.com,2013-02-15 23:25:00,
2013-02-15 18:40:00,44.1,35.0,29.94,NW,315,1.7,-999.0,70,-99.99,,,0.01,Acu-Link.com,2013-02-15 23:40:00,
2013-02-15 18:55:00,43.3,34.5,29.94,West,270,0.0,-999.0,71,-99.99,,,0.01,Acu-Link.com,2013-02-15 23:55:00,
2013-02-15 19:11:00,43.0,34.6,29.94,ENE,67,0.0,-999.0,72,-99.99,,,0.01,Acu-Link.com,2013-02-16 00:11:00,
2013-02-15 19:26:00,42.6,34.6,29.93,ENE,67,1.1,-999.0,73,-99.99,,,0.01,Acu-Link.com,2013-02-16 00:26:00,
2013-02-15 19:41:00,42.3,33.2,29.94,East,90,1.7,-999.0,70,-99.99,,,0.01,Acu-Link.com,2013-02-16 00:41:00,
2013-02-15 19:56:00,41.7,33.4,29.95,NE,45,0.0,-999.0,72,-99.99,,,0.01,Acu-Link.com,2013-02-16 00:56:00,
2013-02-15 20:11:00,41.0,32.0,29.94,North,0,1.7,-999.0,70,-99.99,,,0.01,Acu-Link.com,2013-02-16 01:11:00,
2013-02-15 20:26:00,40.6,30.9,29.95,North,0,1.7,-999.0,68,-99.99,,,0.01,Acu-Link.com,2013-02-16 01:26:00,
2013-02-15 20:41:00,40.1,29.7,29.95,NNW,337,1.7,-999.0,66,-99.99,,,0.01,Acu-Link.com,2013-02-16 01:41:00,
2013-02-15 20:56:00,39.6,29.6,29.95,NE,45,0.0,-999.0,67,-99.99,,,0.01,Acu-Link.com,2013-02-16 01:56:00,
2013-02-15 21:11:00,38.1,29.2,29.94,NE,45,0.0,-999.0,70,-99.99,,,0.01,Acu-Link.com,2013-02-16 02:11:00,
2013-02-15 21:27:00,36.9,29.4,29.94,NW,315,2.2,-999.0,74,-99.99,,,0.01,Acu-Link.com,2013-02-16 02:27:00,
2013-02-15 21:42:00,36.0,29.8,29.96,NNW,337,0.0,-999.0,78,-99.99,,,0.01,Acu-Link.com,2013-02-16 02:42:00,
2013-02-15 21:57:00,34.5,29.6,29.95,NNW,337,1.7,-999.0,82,-99.99,,,0.01,Acu-Link.com,2013-02-16 02:57:00,
2013-02-15 22:12:00,33.4,28.8,29.96,NNW,337,1.7,-999.0,83,-99.99,,,0.01,Acu-Link.com,2013-02-16 03:12:00,
2013-02-15 22:27:00,32.5,28.8,29.95,NNW,337,2.2,-999.0,86,-99.99,,,0.01,Acu-Link.com,2013-02-16 03:27:00,
2013-02-15 22:42:00,32.0,28.6,29.96,NNW,337,0.0,-999.0,87,-99.99,,,0.01,Acu-Link.com,2013-02-16 03:42:00,
2013-02-15 22:57:00,31.3,27.9,29.95,NNW,337,0.0,-999.0,87,-99.99,,,0.01,Acu-Link.com,2013-02-16 03:57:00,
2013-02-15 23:12:00,30.7,27.8,29.94,NNW,337,0.0,-999.0,89,-99.99,,,0.01,Acu-Link.com,2013-02-16 04:12:00,
2013-02-15 23:27:00,30.4,28.1,29.95,NNW,337,1.1,-999.0,91,-99.99,,,0.01,Acu-Link.com,2013-02-16 04:27:00,
2013-02-15 23:43:00,30.0,27.7,29.95,NNW,337,0.0,-999.0,91,-99.99,,,0.01,Acu-Link.com,2013-02-16 04:43:00,
2013-02-15 23:58:00,30.0,28.0,29.94,NE,45,0.0,-999.0,92,-99.99,,,0.01,Acu-Link.com,2013-02-16 04:58:00,